Showing default

SAUDISAT 5B, 43833

Orbit data source: Space-Track

SAUDISAT 5B, 43833 is a payload satellite owned by KACST (SA) in SSO that was launched on Fri, 07 Dec 2018 UTC via a CHANG ZHENG 2D launch vehicle from the Jiuquan Satellite Launch Center, China (JSC). Payload-class satellites include a variety of spacecraft equipped with specific instruments for various scientific and technological missions. These include communications satellites like Starlink; space stations such as the ISS; scientific satellites like the Hubble; Earth observation satellites from companies like Planet Labs, Umbra, and HawkEye 360; GPS; miniature CubeSats for education and research; and military/defense satellites.

Loading next visibility...
Identifier
43833, 2018-102C
Orbit
SSO
Country
Flag of UnknownUnknown / SAUD
Related business
Manufacturer
KACST
Mission
Operational Civil Technology
Bus & Motor
SAUDISAT, Unknown motor
Mass
425 kg wet, 425 kg dry
Launch date (UTC)
2018-12-07 (7 years ago)
Launch vehicle
CHANG ZHENG 2D
Launch site
Jiuquan Satellite Launch Center, China (JSC)
Object type
Payload
Rocket body
Debris
Shape & HBR
Box, 1.0 m
Radar Cross Section
2.500 m², Large (>1 m²)

Expand to show TLE details & history
Last TLE update: 9 hours ago

TLE from 9 hours ago
0 SAUDISAT 5B
1 43833U 18102C   26036.52084303  .00010085  00000-0  38491-3 0  9997
2 43833  97.3350 103.4941 0009369 238.3847 121.6479 15.26810578395699
Epoch: 2026-02-05T12:30Z
TLE epoch observation values (Epoch: 2026-02-05T12:30:00.837Z)
Latitude
0.00003°
Longitude
140.31872°
Altitude
491.835 km
Speed
7.617 km/s
True Right ascension
06h 53m 58s
True Declination
0° 00' 00"
Sunlit
Object was in full shadow at epoch
Visualization orbit readout
Latitude
Unknown
Longitude
Unknown
Altitude
Unknown
Speed
Unknown
Apparent Right ascension
Unknown
Apparent Declination
Unknown
Sunlit
N/A
Visualization observer readout
Local Sidereal Time
23:42:25
Azimuth
Unknown
Elevation
Unknown
Doppler factor
Unknown
Orbital elements
Apogee altitude
488.735 km
Perigee altitude
475.88 km
Semi-major axis
6,860.445 km
Eccentricity
0.00094
Inclination
97.335°
RAAN
103.4941°
Arg. of periapsis
238.3847°
True anomaly
121.73924°
Mean anomaly
121.6479°
Eccentric anomaly
121.69358°
Mean motion
3.81957 °/min
Orbital period
94.25 mins
BSTAR
0.00038491
Loading maneuver chart data...
Computing Atmospheric mass density...
Loading historical data...
Loading historical data...
Loading historical data...
Loading historical data...
Loading historical data...
Loading historical data...
Loading historical data...

Documentation

Showing up to 5 results
|